Wind_Speed
13 13 12 12 14 12 11 11 11 11 10 10 10 11 11 10 10 9 8 8 7 7 7 7 6 6 6 5 5 4 4 3 3 4 4 5 5 5 5 5 5 5 5 4 4 3 2 3 3
13 13 12 13 14 11 10 11 11 10 10 10 10 11 10 10 10 9 9 8 7 7 7 6 6 5 5 5 4 4 4 4 4 4 4 4 4 4 5 5 5 5 5 4 4 4 4 4 4
12 12 12 13 12 11 10 9 10 10 10 10 10 10 9 9 9 8 8 8 7 7 6 5 5 4 4 5 5 4 4 3 3 4 4 4 4 4 6 6 6 6 5 5 5 5 5 4 4
12 12 12 12 10 9 9 10 10 10 10 10 10 9 9 9 9 8 8 8 7 6 5 5 4 4 4 4 4 4 4 3 4 4 4 5 5 6 6 6 6 5 5 5 5 5 5 4 4
12 13 13 11 10 9 10 10 11 11 11 11 10 9 9 9 9 8 8 8 7 6 5 5 4 4 4 4 4 4 4 4 4 4 4 5 5 6 6 6 5 5 5 5 5 5 5 4 3
12 13 12 11 10 10 10 11 11 12 12 11 10 9 9 9 9 9 9 9 8 8 6 5 5 5 5 4 4 4 4 4 4 5 5 4 5 5 6 5 5 5 5 4 4 4 4 3 2
12 13 12 11 10 10 11 11 12 12 12 11 10 9 9 9 9 8 8 8 8 7 7 5 5 5 4 4 4 4 4 4 4 5 4 4 4 4 5 4 4 4 4 3 3 2 2 2 1
13 13 11 10 10 10 11 11 11 11 11 11 10 10 10 9 9 8 8 7 7 6 6 5 4 4 4 3 3 3 4 4 4 4 4 3 3 3 4 3 3 3 3 2 2 1 1 1 1
13 13 10 10 10 10 10 10 10 10 10 10 10 10 10 10 10 9 8 7 7 6 6 6 4 4 4 4 3 3 4 4 4 4 3 3 2 2 3 2 2 1 1 1 0 0 0 1 1
12 11 10 10 10 10 10 10 9 9 10 9 9 10 10 10 10 10 9 8 7 7 6 6 5 4 4 4 4 3 3 3 3 3 3 2 3 2 2 1 1 1 1 1 0 0 1 2 2
10 9 9 9 9 9 9 9 10 9 10 9 9 10 10 10 10 9 9 8 8 7 6 5 5 5 4 4 4 3 3 2 2 2 2 2 1 2 1 0 1 1 1 1 1 0 1 2 2
9 8 8 8 8 8 9 9 9 9 9 9 8 8 9 8 9 9 9 8 7 7 7 6 6 6 5 4 4 3 2 1 1 1 1 1 1 1 1 1 1 1 2 2 1 1 1 2 2
8 7 7 7 7 8 9 9 9 8 8 8 8 8 8 8 8 8 8 7 7 7 8 8 7 6 5 5 5 4 3 2 2 1 1 1 1 2 2 1 1 2 2 2 2 2 2 3 3
7 6 6 7 7 7 8 8 7 7 7 8 8 8 8 8 8 7 7 7 7 7 8 8 7 7 6 6 6 6 4 3 2 2 2 2 2 2 2 2 2 2 2 3 2 3 2 3 3
7 7 7 7 7 7 7 7 6 6 6 7 7 7 7 6 7 7 7 7 7 7 8 7 7 7 7 7 7 6 6 5 4 4 3 3 2 2 2 3 3 2 2 2 3 3 3 4 4
7 7 6 6 5 6 6 6 5 5 6 6 6 6 6 7 7 7 8 7 7 7 7 7 7 8 7 8 8 7 7 6 6 5 5 4 3 2 2 3 3 3 2 2 3 4 5 4 4
5 5 4 4 5 5 5 4 4 4 4 5 6 6 6 7 6 7 7 7 7 7 7 7 7 7 8 8 8 8 7 7 6 6 6 5 4 3 3 3 3 3 3 3 3 4 5 5 5
3 3 2 3 4 4 5 4 3 3 3 4 5 6 6 6 6 6 6 6 6 7 7 6 7 7 8 8 8 8 8 8 7 7 6 5 5 4 4 4 3 3 3 4 4 5 5 6 6
3 2 2 2 3 3 3 3 2 2 3 4 5 6 5 5 6 6 6 6 6 7 6 7 7 7 7 8 9 9 9 10 9 9 7 6 5 6 5 4 4 4 4 4 5 5 5 6 6
2 3 2 2 2 2 2 2 2 3 3 4 4 5 5 5 5 5 6 6 6 6 6 6 7 7 8 8 9 9 9 10 10 9 9 7 6 6 5 5 6 6 6 6 5 6 5 6 6
2 2 1 1 1 1 2 3 3 3 4 4 5 5 6 5 5 5 6 6 7 7 6 6 7 7 7 8 9 9 10 10 10 10 9 9 8 6 6 6 6 6 6 6 6 6 6 6 7
3 3 2 1 0 1 1 1 3 3 4 4 5 5 6 6 5 6 6 7 7 7 6 6 7 7 7 8 9 10 10 10 10 10 9 9 9 8 7 7 7 7 7 7 7 7 7 7 7
4 4 3 2 1 1 1 1 3 4 4 4 5 6 5 5 6 6 6 6 7 8 7 6 7 7 8 8 9 10 10 10 10 10 10 10 9 9 8 8 8 8 8 7 8 8 8 8 8
4 4 3 3 2 3 3 2 4 5 5 5 5 6 6 6 6 6 6 6 7 7 8 8 9 8 8 9 9 10 10 11 11 11 10 10 10 9 9 8 9 9 8 8 9 9 8 8 9
5 3 3 3 4 5 5 4 5 5 6 6 6 6 7 7 7 7 7 7 8 8 8 8 10 9 9 10 10 11 11 11 11 11 11 10 10 10 10 10 10 10 10 10 9 9 9 9 9
7 6 5 5 5 6 6 6 6 7 7 6 6 7 7 7 7 8 8 8 9 9 9 10 10 11 11 11 11 12 12 12 12 12 12 12 12 12 12 11 10 10 11 11 10 10 10 10 10
10 9 8 8 8 7 8 8 8 9 9 9 8 8 8 7 7 8 9 9 10 11 11 12 12 12 13 12 13 13 14 14 13 13 13 14 13 13 13 13 12 12 12 12 11 11 11 11 11
12 11 11 9 9 9 9 9 10 10 10 10 9 9 8 8 8 8 9 10 11 12 13 13 13 14 14 14 15 15 15 15 15 14 14 15 15 14 14 14 14 14 13 13 12 11 11 12 12
14 14 13 11 10 8 9 10 12 11 11 11 10 10 10 10 10 10 11 12 12 13 14 14 15 15 15 16 17 17 16 16 16 16 16 16 16 15 15 15 15 15 14 14 13 12 13 13 13
15 14 14 13 13 11 11 13 13 13 12 12 12 12 12 13 12 12 13 13 14 15 15 16 16 16 16 17 17 18 17 17 17 18 18 18 17 17 17 17 17 17 15 15 15 14 14 15 15
Wind_Direction
93 93 92 92 85 88 93 96 97 94 91 88 85 82 81 78 77 77 75 75 72 72 79 77 77 80 84 90 96 99 103 101 92 93 102 108 108 103 103 105 109 110 114 109 99 103 102 112 124
95 93 91 91 88 92 95 99 98 95 91 88 85 84 80 76 77 78 75 76 74 71 74 72 71 77 82 85 96 105 108 107 98 105 106 105 106 98 102 103 105 105 106 109 106 100 95 115 119
92 91 91 91 93 96 97 100 98 92 89 88 87 85 79 76 74 72 74 73 73 68 67 69 68 69 77 86 91 101 110 106 103 115 112 104 101 98 105 105 103 101 100 106 107 101 99 106 114
92 90 90 90 94 96 97 98 95 90 89 90 89 85 81 78 74 70 70 70 67 65 66 72 70 66 78 86 91 93 98 102 106 119 114 109 112 112 104 106 103 105 105 100 97 103 103 101 103
93 92 87 89 92 94 97 96 94 91 90 90 89 84 81 78 72 70 68 65 64 64 65 72 70 71 79 80 81 87 94 100 106 107 108 116 120 116 110 107 107 111 107 99 95 101 97 93 94
95 94 95 93 90 95 97 96 95 93 91 89 87 83 78 75 71 68 65 64 62 61 67 69 61 58 63 73 80 88 90 102 106 108 110 117 114 113 110 111 115 114 113 105 101 100 90 83 78
97 99 96 92 92 94 98 98 96 94 90 88 85 79 72 69 68 66 63 63 64 61 57 63 58 49 56 66 77 69 76 90 98 108 116 119 113 109 109 114 116 111 112 112 112 106 90 74 56
96 96 93 92 94 95 101 99 97 94 89 86 81 76 69 66 64 63 60 61 61 56 51 54 57 46 44 58 70 71 67 78 92 100 110 113 119 116 109 106 110 111 115 116 116 116 84 33 356
98 95 94 94 95 98 102 100 94 91 87 84 79 75 71 67 64 63 62 62 62 57 52 51 49 52 56 58 61 69 69 72 86 95 97 98 103 113 113 104 101 114 117 119 129 130 356 320 317
100 101 94 92 93 96 98 97 94 87 84 80 76 72 70 68 64 60 59 57 56 53 46 48 50 61 53 55 62 80 81 75 73 76 80 85 83 81 92 126 151 192 187 184 135 153 304 311 311
104 100 93 86 87 94 96 93 88 87 85 80 75 70 69 67 63 59 55 50 48 45 42 44 45 48 45 48 51 64 81 78 75 81 70 49 52 57 53 72 239 240 202 198 180 269 306 303 315
102 97 91 85 84 92 93 87 81 81 81 77 72 68 65 66 62 57 53 47 44 42 41 41 41 41 44 48 48 51 64 60 57 44 33 27 6 2 341 340 333 266 228 225 223 252 278 288 298
102 95 89 89 88 94 94 89 82 78 74 70 67 62 61 61 58 50 48 48 46 46 46 43 42 42 45 44 43 43 41 48 52 40 16 352 339 319 314 324 300 281 264 248 239 242 261 267 289
101 100 95 94 92 97 101 92 81 75 71 69 62 57 59 52 46 46 48 46 44 43 43 45 48 48 49 44 40 38 37 30 25 27 30 16 336 309 291 293 293 283 260 245 241 244 265 279 292
98 95 96 96 95 95 95 85 74 71 64 61 55 51 47 44 44 46 44 42 43 42 42 47 51 51 50 48 44 41 34 28 17 14 14 12 355 330 300 291 293 292 266 239 242 250 265 279 289
91 88 90 92 96 97 95 82 72 66 58 49 47 43 39 38 41 44 41 41 40 40 43 46 49 48 47 46 42 39 35 25 12 9 11 6 4 342 315 301 297 300 277 257 256 254 266 281 291
85 92 94 92 94 95 96 87 78 64 49 38 32 31 28 31 36 40 39 39 38 39 42 43 42 43 41 39 36 33 29 22 14 7 1 354 352 353 334 316 298 290 279 269 270 267 269 279 287
130 120 103 104 102 95 89 77 79 59 35 25 22 24 26 29 31 29 27 28 31 36 37 36 37 37 38 33 27 26 22 16 12 9 0 354 348 343 336 322 309 294 282 277 278 279 274 272 278
146 137 136 125 103 95 80 68 67 56 27 17 16 20 23 26 25 22 24 24 25 31 28 24 29 32 33 27 20 18 17 12 8 7 5 353 340 332 332 329 322 307 296 291 291 287 281 275 274
140 129 126 132 98 79 63 46 36 23 15 21 21 18 20 22 21 21 20 17 14 18 20 20 23 22 19 16 13 10 10 8 7 4 359 354 339 330 330 325 321 312 300 296 298 297 285 286 283
199 176 164 156 97 54 35 19 4 10 7 10 7 10 10 10 11 10 11 15 12 14 22 22 19 14 11 8 5 4 3 4 5 3 358 354 345 332 325 314 311 307 298 294 298 299 290 290 291
225 221 212 194 60 351 348 340 324 338 341 347 351 356 356 357 358 360 359 4 6 9 13 14 11 10 4 0 0 359 357 356 358 356 353 349 348 339 326 317 309 305 299 294 292 294 293 289 290
219 224 222 230 268 302 302 288 301 312 322 330 338 342 340 342 344 345 346 350 356 358 1 3 1 359 356 351 352 351 351 349 348 346 343 341 342 338 329 320 313 307 298 292 288 287 286 284 289
228 235 243 270 286 279 283 292 296 304 309 315 318 322 325 326 328 329 328 333 343 350 353 353 351 350 348 345 342 342 344 343 341 339 335 334 335 334 331 327 318 311 304 296 287 285 288 288 289
232 231 263 279 284 287 291 295 296 304 303 305 308 310 311 313 314 318 318 323 332 337 340 340 340 339 336 336 335 333 335 335 335 333 331 330 330 329 329 326 318 308 304 300 290 283 285 288 287
233 233 235 254 267 280 286 287 293 302 303 304 307 309 310 308 308 313 319 318 321 325 326 329 328 329 330 328 326 326 328 329 330 328 324 325 326 324 324 325 320 310 304 300 295 288 282 282 282
238 240 244 258 269 276 277 283 289 291 294 296 298 301 307 309 312 315 315 313 314 317 318 319 319 319 318 316 315 315 317 318 319 322 322 321 320 318 317 318 316 310 306 300 293 288 284 280 281
242 245 250 257 266 274 281 285 285 285 290 290 293 295 297 301 303 308 314 314 312 312 313 314 311 311 310 309 308 307 309 312 312 313 315 317 317 316 314 314 313 310 306 302 294 288 286 282 283
248 247 251 255 256 262 275 275 278 284 288 287 285 287 286 286 289 295 301 308 310 310 310 310 308 307 306 305 306 308 306 306 306 307 307 310 312 311 310 310 310 309 305 301 295 290 286 284 284
249 250 253 258 262 261 264 270 274 279 283 283 282 282 282 281 285 290 295 301 304 308 309 308 308 307 306 306 304 306 307 305 304 303 304 305 306 306 305 304 303 303 303 302 298 292 285 283 283
Height
5899 5898 5899 5900 5901 5902 5901 5901 5900 5899 5898 5898 5897 5896 5896 5896 5896 5897 5894 5892 5891 5890 5890 5889 5888 5888 5887 5887 5887 5886 5886 5885 5884 5884 5883 5883 5883 5882 5881 5881 5880 5881 5881 5881 5881 5881 5881 5882 5882
5900 5900 5901 5902 5903 5903 5903 5901 5901 5900 5900 5898 5898 5897 5897 5896 5896 5895 5894 5893 5892 5891 5891 5890 5889 5889 5888 5888 5887 5886 5886 5886 5885 5884 5884 5884 5883 5883 5882 5882 5881 5881 5882 5882 5882 5882 5882 5882 5882
5902 5902 5904 5903 5904 5904 5904 5903 5902 5901 5900 5899 5899 5898 5898 5897 5897 5896 5895 5894 5893 5892 5892 5891 5890 5890 5889 5888 5888 5887 5886 5886 5886 5885 5885 5884 5884 5883 5883 5882 5882 5883 5883 5883 5883 5883 5883 5883 5883
5904 5905 5905 5906 5905 5905 5904 5904 5903 5902 5901 5900 5900 5900 5899 5898 5897 5896 5895 5895 5894 5893 5892 5892 5891 5890 5889 5889 5888 5887 5887 5886 5886 5885 5885 5884 5884 5884 5884 5884 5884 5884 5884 5884 5884 5884 5884 5883 5883
5906 5906 5908 5907 5906 5906 5905 5904 5904 5903 5902 5901 5901 5901 5900 5899 5898 5897 5896 5896 5895 5894 5893 5893 5891 5891 5890 5889 5888 5887 5887 5887 5886 5886 5885 5885 5885 5885 5885 5884 5884 5885 5885 5885 5884 5884 5884 5884 5884
5908 5908 5910 5909 5908 5907 5906 5906 5905 5904 5904 5903 5903 5902 5901 5900 5899 5898 5897 5897 5896 5895 5894 5893 5892 5891 5890 5890 5889 5888 5887 5887 5886 5886 5886 5885 5885 5885 5885 5885 5885 5885 5885 5885 5885 5885 5885 5884 5884
5910 5911 5911 5910 5910 5909 5908 5907 5907 5906 5905 5905 5904 5903 5902 5901 5900 5899 5899 5898 5897 5896 5895 5894 5893 5892 5891 5890 5889 5889 5888 5887 5887 5887 5887 5886 5886 5886 5886 5886 5886 5886 5886 5886 5886 5886 5885 5885 5885
5911 5913 5913 5912 5912 5911 5910 5909 5908 5908 5907 5906 5906 5905 5904 5903 5902 5901 5900 5899 5898 5897 5896 5895 5894 5893 5892 5891 5890 5890 5889 5888 5887 5887 5887 5887 5886 5886 5886 5886 5886 5886 5886 5886 5886 5886 5886 5885 5885
5913 5916 5915 5914 5913 5912 5911 5911 5910 5909 5908 5907 5907 5906 5905 5904 5903 5902 5901 5900 5899 5898 5897 5896 5895 5894 5893 5892 5891 5891 5890 5889 5888 5887 5887 5887 5887 5886 5886 5886 5886 5886 5886 5886 5886 5886 5886 5885 5885
5916 5917 5916 5915 5914 5914 5913 5912 5912 5911 5910 5909 5908 5907 5906 5905 5904 5903 5902 5901 5900 5899 5898 5897 5896 5895 5894 5893 5892 5891 5890 5889 5889 5888 5888 5888 5887 5887 5887 5887 5887 5887 5887 5886 5886 5886 5886 5885 5885
5917 5918 5917 5916 5916 5915 5914 5913 5913 5912 5912 5911 5910 5909 5908 5907 5906 5905 5904 5903 5902 5901 5899 5898 5897 5896 5895 5894 5892 5891 5890 5890 5889 5889 5888 5888 5888 5888 5887 5887 5887 5886 5886 5887 5886 5886 5885 5885 5884
5919 5919 5918 5918 5917 5916 5916 5915 5914 5914 5913 5912 5911 5910 5909 5908 5907 5906 5905 5904 5903 5902 5901 5899 5898 5897 5895 5894 5893 5892 5891 5890 5890 5889 5889 5888 5888 5888 5888 5887 5887 5886 5886 5886 5886 5886 5885 5885 5884
5921 5920 5919 5919 5918 5918 5917 5917 5916 5915 5914 5913 5912 5911 5910 5910 5909 5908 5907 5905 5904 5903 5902 5900 5899 5897 5896 5895 5894 5893 5892 5891 5890 5890 5889 5889 5888 5888 5888 5887 5887 5887 5886 5886 5886 5886 5885 5884 5883
5922 5922 5921 5920 5920 5919 5919 5919 5918 5917 5916 5915 5914 5913 5912 5911 5910 5909 5908 5907 5905 5904 5902 5901 5899 5898 5897 5896 5894 5893 5892 5892 5891 5890 5889 5889 5888 5888 5887 5887 5887 5886 5886 5886 5885 5885 5884 5884 5883
5924 5924 5923 5922 5922 5921 5921 5921 5920 5919 5917 5916 5916 5915 5914 5912 5911 5910 5909 5907 5906 5905 5903 5902 5900 5899 5898 5897 5895 5894 5893 5892 5891 5890 5889 5888 5888 5887 5887 5886 5886 5886 5885 5885 5885 5884 5884 5883 5883
5925 5926 5926 5925 5923 5923 5924 5923 5921 5920 5919 5918 5917 5916 5915 5913 5912 5911 5910 5908 5907 5906 5904 5903 5901 5900 5899 5898 5897 5895 5894 5893 5891 5890 5889 5888 5887 5887 5886 5886 5885 5885 5885 5884 5884 5884 5883 5882 5882
5927 5928 5927 5926 5925 5924 5925 5924 5923 5922 5921 5919 5918 5917 5916 5914 5913 5912 5910 5909 5908 5907 5905 5904 5903 5902 5900 5899 5898 5896 5895 5893 5892 5890 5889 5888 5887 5886 5885 5885 5884 5884 5883 5883 5883 5882 5882 5881 5881
5929 5928 5928 5927 5926 5925 5925 5924 5924 5923 5922 5921 5920 5918 5917 5915 5914 5913 5911 5910 5909 5907 5906 5905 5904 5903 5901 5900 5899 5897 5896 5894 5892 5891 5890 5888 5887 5886 5885 5884 5883 5883 5882 5882 5881 5881 5880 5880 5880
5928 5928 5928 5928 5927 5926 5926 5925 5924 5924 5923 5922 5920 5919 5917 5916 5915 5913 5912 5911 5910 5908 5907 5906 5905 5904 5903 5901 5899 5898 5896 5894 5893 5891 5890 5888 5887 5886 5885 5884 5883 5882 5881 5881 5880 5880 5879 5879 5878
5928 5928 5928 5928 5927 5927 5926 5926 5925 5924 5923 5922 5921 5920 5918 5917 5916 5915 5913 5912 5910 5909 5908 5907 5905 5904 5903 5902 5900 5898 5897 5895 5893 5891 5890 5888 5887 5885 5884 5883 5882 5881 5880 5880 5879 5879 5878 5878 5877
5928 5928 5928 5928 5928 5927 5927 5927 5926 5925 5924 5923 5921 5920 5919 5918 5917 5915 5914 5913 5911 5910 5908 5907 5906 5904 5903 5902 5900 5898 5897 5895 5893 5892 5890 5888 5886 5885 5884 5883 5881 5880 5879 5878 5878 5877 5877 5876 5876
5928 5928 5928 5928 5928 5928 5928 5928 5926 5925 5924 5923 5922 5920 5919 5918 5917 5916 5915 5913 5912 5910 5909 5908 5906 5905 5903 5902 5901 5899 5897 5895 5893 5892 5890 5888 5886 5885 5883 5882 5880 5879 5878 5877 5877 5876 5875 5875 5874
5927 5927 5928 5928 5928 5928 5928 5928 5927 5925 5924 5923 5921 5920 5919 5918 5917 5916 5915 5914 5912 5911 5909 5908 5907 5905 5904 5902 5900 5899 5897 5895 5893 5891 5889 5887 5886 5884 5882 5881 5879 5878 5877 5876 5875 5874 5873 5873 5872
5926 5927 5927 5927 5928 5929 5928 5927 5927 5924 5923 5922 5921 5919 5918 5917 5916 5915 5914 5913 5912 5911 5909 5908 5907 5905 5904 5902 5900 5898 5896 5894 5892 5890 5888 5886 5884 5883 5881 5879 5878 5876 5875 5874 5872 5872 5871 5871 5870
5925 5927 5929 5929 5929 5928 5926 5926 5926 5923 5922 5921 5920 5918 5917 5916 5915 5915 5914 5913 5912 5911 5909 5908 5906 5905 5903 5901 5899 5897 5895 5893 5891 5889 5887 5885 5883 5881 5879 5878 5876 5874 5873 5872 5870 5869 5869 5868 5868
5924 5926 5928 5929 5929 5927 5925 5924 5924 5922 5921 5920 5919 5917 5916 5915 5914 5913 5913 5912 5911 5910 5908 5907 5905 5903 5902 5900 5898 5896 5894 5892 5890 5888 5886 5884 5881 5879 5878 5876 5874 5872 5871 5869 5867 5866 5866 5866 5865
5921 5923 5924 5925 5925 5925 5924 5923 5922 5920 5919 5918 5917 5916 5915 5914 5913 5912 5911 5910 5909 5908 5906 5905 5903 5901 5900 5898 5896 5894 5892 5890 5888 5886 5884 5882 5880 5878 5876 5874 5872 5870 5868 5867 5865 5864 5863 5863 5863
5919 5920 5921 5923 5923 5923 5923 5921 5920 5918 5917 5916 5915 5914 5913 5912 5911 5910 5910 5909 5907 5906 5904 5902 5901 5899 5897 5895 5893 5891 5890 5888 5886 5884 5882 5879 5877 5875 5873 5871 5869 5868 5866 5864 5862 5861 5860 5860 5859
5915 5916 5917 5918 5919 5921 5921 5922 5917 5915 5915 5913 5912 5912 5911 5910 5910 5909 5908 5906 5905 5903 5902 5900 5898 5896 5894 5892 5890 5888 5886 5884 5883 5881 5879 5876 5874 5872 5870 5868 5866 5864 5863 5861 5859 5858 5857 5857 5856
5911 5912 5914 5915 5915 5915 5917 5919 5913 5913 5912 5911 5910 5909 5909 5908 5907 5906 5905 5904 5902 5901 5899 5897 5895 5893 5891 5889 5887 5885 5883 5881 5879 5877 5875 5873 5871 5869 5867 5865 5863 5861 5859 5858 5856 5855 5854 5853 5852